User: anonymous   Login
Location: Holyhead Bay
(53.3667°N, 4.6667°W)
Time: 18:33:41
(UTC+00:00)
Language:

Cosmos 1602 Rocket - Orbit

View from above orbital plane
View from above orbital plane
View from above satellite
View from above satellite

Ground track
Ground track

The orbit data is extracted from the following two-line orbital elements,

1 15332U 84105B   21172.61926635  .00000065  00000-0  50301-5 0  9998
2 15332  82.5352 258.1014 0020233 213.9084 262.2252 14.83465711983831
Epoch (UTC): 21 June 2021 14:51:44
Eccentricity: 0.0020233
inclination: 82.5352°
perigee height: 604 km
apogee height: 632 km
right ascension of ascending node: 258.1014°
argument of perigee: 213.9084°
revolutions per day: 14.83465711
mean anomaly at epoch: 262.2252°
orbit number at epoch: 98383

The dashed part of the orbit path shows where the satellite is in the earth's shadow,  

DLR